JIA4471 KSAV-KCLT

Flight info

Callsign JIA4471
Flight time 0h 51m
Altitude 27000
Route JROSS FLLGG STOCR4
Aircraft CRJ7/M-SDFGIRWY/S

Departure

Time 2026-05-07 01:12
Airport Savannah Hilton Head International Airport (KSAV)

Arrival

Time 2026-05-07 02:03
Airport Charlotte Douglas International Airport (KCLT)
Time Latitude Longitude Altitude Speed Heading
2026-05-07 00:56 32.13517 -81.20740 34 ft 0 kts 360°
2026-05-07 01:03 32.13507 -81.20740 34 ft 3 kts 360°
2026-05-07 01:03 32.13488 -81.20740 34 ft 3 kts
2026-05-07 01:04 32.13470 -81.20749 34 ft 3 kts 40°
2026-05-07 01:04 32.13460 -81.20767 34 ft 3 kts 75°
2026-05-07 01:04 32.13458 -81.20780 34 ft 0 kts 82°
2026-05-07 01:08 32.13458 -81.20733 34 ft 9 kts 97°
2026-05-07 01:08 32.13444 -81.20656 35 ft 9 kts 102°
2026-05-07 01:09 32.13443 -81.20583 36 ft 9 kts 87°
2026-05-07 01:09 32.13446 -81.20512 37 ft 10 kts 90°
2026-05-07 01:09 32.13445 -81.20405 43 ft 13 kts 91°
2026-05-07 01:09 32.13484 -81.20336 47 ft 10 kts 15°
2026-05-07 01:10 32.13550 -81.20320 47 ft 10 kts 32°
2026-05-07 01:10 32.13571 -81.20259 49 ft 8 kts 86°
2026-05-07 01:10 32.13572 -81.20181 51 ft 11 kts 90°
2026-05-07 01:10 32.13571 -81.20083 52 ft 14 kts 90°
2026-05-07 01:11 32.13510 -81.20015 52 ft 14 kts 176°
2026-05-07 01:11 32.13488 -81.20014 51 ft 12 kts 180°
2026-05-07 01:11 32.13114 -81.20013 47 ft 102 kts 180°
2026-05-07 01:11 32.12107 -81.20002 157 ft 174 kts 180°
2026-05-07 01:12 32.10841 -81.19996 1107 ft 189 kts 179°
2026-05-07 01:12 32.09496 -81.19963 2315 ft 195 kts 179°
2026-05-07 01:12 32.08165 -81.19851 3524 ft 194 kts 179°
2026-05-07 01:12 32.06721 -81.19734 4493 ft 221 kts 180°
2026-05-07 01:13 32.05150 -81.19608 5333 ft 244 kts 179°
2026-05-07 01:13 32.03402 -81.19443 6244 ft 267 kts 179°
2026-05-07 01:13 32.01480 -81.19094 7129 ft 294 kts 164°
2026-05-07 01:13 31.99762 -81.17782 8159 ft 303 kts 137°
2026-05-07 01:14 31.98667 -81.15641 9313 ft 305 kts 110°
2026-05-07 01:14 31.98448 -81.13175 10426 ft 303 kts 83°
2026-05-07 01:14 31.99079 -81.10852 11236 ft 304 kts 57°
2026-05-07 01:14 32.00438 -81.09037 11964 ft 301 kts 31°
2026-05-07 01:15 32.02303 -81.08031 12761 ft 291 kts
2026-05-07 01:15 32.04144 -81.08027 13516 ft 281 kts 345°
2026-05-07 01:15 32.06127 -81.08405 14271 ft 291 kts 345°
2026-05-07 01:15 32.08189 -81.08686 15001 ft 305 kts 350°
2026-05-07 01:16 32.10355 -81.08747 15786 ft 318 kts 356°
2026-05-07 01:16 32.12606 -81.08449 16528 ft 333 kts
2026-05-07 01:16 32.14887 -81.07710 17296 ft 348 kts 14°
2026-05-07 01:16 32.17128 -81.06483 18088 ft 362 kts 22°
2026-05-07 01:17 32.19316 -81.04928 18798 ft 373 kts 27°
2026-05-07 01:17 32.21486 -81.03180 19489 ft 382 kts 29°
2026-05-07 01:17 32.23671 -81.01345 20195 ft 389 kts 30°
2026-05-07 01:17 32.25889 -80.99473 20917 ft 395 kts 29°
2026-05-07 01:18 32.28153 -80.97593 21664 ft 401 kts 28°
2026-05-07 01:18 32.30461 -80.95706 22436 ft 405 kts 28°
2026-05-07 01:18 32.32727 -80.93888 23204 ft 408 kts 27°
2026-05-07 01:18 32.35088 -80.91998 23941 ft 411 kts 27°
2026-05-07 01:19 32.37459 -80.90095 24631 ft 413 kts 27°
2026-05-07 01:19 32.39836 -80.88181 25313 ft 414 kts 27°
2026-05-07 01:19 32.42210 -80.86263 26004 ft 413 kts 27°
2026-05-07 01:19 32.44591 -80.84331 26546 ft 418 kts 27°
2026-05-07 01:20 32.47028 -80.82356 26803 ft 430 kts 27°
2026-05-07 01:20 32.49543 -80.80326 26926 ft 445 kts 27°
2026-05-07 01:20 32.52156 -80.78230 26990 ft 462 kts 27°
2026-05-07 01:20 32.54855 -80.76043 27020 ft 478 kts 28°
2026-05-07 01:21 32.57602 -80.73802 27036 ft 481 kts 28°
2026-05-07 01:21 32.60368 -80.71538 27036 ft 484 kts 28°
2026-05-07 01:21 32.63134 -80.69272 27029 ft 485 kts 28°
2026-05-07 01:21 32.65913 -80.66994 27024 ft 486 kts 28°
2026-05-07 01:22 32.68700 -80.64710 27017 ft 487 kts 28°
2026-05-07 01:22 32.71550 -80.62561 27014 ft 482 kts 22°
2026-05-07 01:22 32.74549 -80.60828 27012 ft 477 kts 17°
2026-05-07 01:22 32.77593 -80.59360 27016 ft 475 kts 14°
2026-05-07 01:23 32.80687 -80.58014 27020 ft 475 kts 13°
2026-05-07 01:23 32.83781 -80.56594 27017 ft 477 kts 15°
2026-05-07 01:23 32.86860 -80.55106 27015 ft 478 kts 15°
2026-05-07 01:23 32.89932 -80.53586 27023 ft 479 kts 16°
2026-05-07 01:24 32.93006 -80.52050 27016 ft 479 kts 16°
2026-05-07 01:24 32.96086 -80.50507 27017 ft 480 kts 16°
2026-05-07 01:24 32.99163 -80.48964 27013 ft 480 kts 16°
2026-05-07 01:24 33.02249 -80.47443 27001 ft 480 kts 15°
2026-05-07 01:25 33.05339 -80.45935 26993 ft 480 kts 15°
2026-05-07 01:25 33.08426 -80.44404 26991 ft 481 kts 16°
2026-05-07 01:25 33.11511 -80.42865 26992 ft 481 kts 15°
2026-05-07 01:25 33.14601 -80.41349 26998 ft 481 kts 15°
2026-05-07 01:26 33.17689 -80.39818 26991 ft 481 kts 16°
2026-05-07 01:26 33.20773 -80.38278 26990 ft 480 kts 15°
2026-05-07 01:26 33.23859 -80.36759 26991 ft 478 kts 15°
2026-05-07 01:26 33.26928 -80.35229 26987 ft 478 kts 15°
2026-05-07 01:27 33.29994 -80.33700 26991 ft 476 kts 15°
2026-05-07 01:27 33.33053 -80.32197 26986 ft 475 kts 15°
2026-05-07 01:27 33.36105 -80.30676 26993 ft 475 kts 15°
2026-05-07 01:27 33.39153 -80.29143 26922 ft 476 kts 15°
2026-05-07 01:28 33.42221 -80.27625 26744 ft 478 kts 15°
2026-05-07 01:28 33.45292 -80.26105 26555 ft 477 kts 15°
2026-05-07 01:28 33.48354 -80.24573 26372 ft 476 kts 15°
2026-05-07 01:28 33.51405 -80.23043 26185 ft 475 kts 16°
2026-05-07 01:29 33.54456 -80.21513 26001 ft 475 kts 16°
2026-05-07 01:29 33.57506 -80.19985 25820 ft 475 kts 16°
2026-05-07 01:29 33.60554 -80.18460 25632 ft 475 kts 16°
2026-05-07 01:29 33.63605 -80.16937 25452 ft 475 kts 16°
2026-05-07 01:30 33.66654 -80.15418 25277 ft 475 kts 16°
2026-05-07 01:30 33.69715 -80.13896 25091 ft 475 kts 16°
2026-05-07 01:30 33.72761 -80.12356 24912 ft 476 kts 17°
2026-05-07 01:30 33.75798 -80.10807 24721 ft 466 kts 16°
2026-05-07 01:31 33.78686 -80.09336 24521 ft 437 kts 16°
2026-05-07 01:31 33.81408 -80.07954 24327 ft 413 kts 15°
2026-05-07 01:31 33.84011 -80.06646 24168 ft 398 kts 15°
2026-05-07 01:31 33.86509 -80.05384 24000 ft 381 kts 14°
2026-05-07 01:32 33.88918 -80.04177 23833 ft 377 kts 14°
2026-05-07 01:32 33.91415 -80.02958 23679 ft 394 kts 14°
2026-05-07 01:32 33.93949 -80.01697 23530 ft 404 kts 15°
2026-05-07 01:32 33.96567 -80.00365 23361 ft 409 kts 11°
2026-05-07 01:33 33.99318 -79.99941 23196 ft 394 kts 347°
2026-05-07 01:33 34.01920 -80.00764 23092 ft 387 kts 334°
2026-05-07 01:33 34.04559 -80.01530 23039 ft 389 kts 344°
2026-05-07 01:33 34.07143 -80.02099 23006 ft 364 kts 334°
2026-05-07 01:34 34.09426 -80.03290 22990 ft 361 kts 327°
2026-05-07 01:34 34.11681 -80.04730 22992 ft 369 kts 325°
2026-05-07 01:34 34.13926 -80.06192 22986 ft 362 kts 326°
2026-05-07 01:34 34.16108 -80.07566 22982 ft 346 kts 326°
2026-05-07 01:35 34.18205 -80.08849 22976 ft 330 kts 326°
2026-05-07 01:35 34.20209 -80.10049 22953 ft 315 kts 326°
2026-05-07 01:35 34.22182 -80.11218 22944 ft 318 kts 326°
2026-05-07 01:35 34.24213 -80.12431 22948 ft 337 kts 326°
2026-05-07 01:36 34.26385 -80.13752 22972 ft 361 kts 326°
2026-05-07 01:36 34.28701 -80.15155 22993 ft 382 kts 327°
2026-05-07 01:36 34.31095 -80.16548 22998 ft 381 kts 328°
2026-05-07 01:36 34.33486 -80.17920 22986 ft 381 kts 328°
2026-05-07 01:37 34.35875 -80.19308 22975 ft 382 kts 328°
2026-05-07 01:37 34.38285 -80.20720 22972 ft 387 kts 327°
2026-05-07 01:37 34.40692 -80.22138 22759 ft 378 kts 327°
2026-05-07 01:37 34.42993 -80.23506 22283 ft 361 kts 327°
2026-05-07 01:38 34.45207 -80.24827 21764 ft 350 kts 327°
2026-05-07 01:38 34.47361 -80.26110 21252 ft 340 kts 327°
2026-05-07 01:38 34.49385 -80.27313 20772 ft 332 kts 327°
2026-05-07 01:38 34.51443 -80.28530 20286 ft 325 kts 327°
2026-05-07 01:39 34.53472 -80.29731 19841 ft 325 kts 327°
2026-05-07 01:39 34.55498 -80.30934 19423 ft 324 kts 327°
2026-05-07 01:39 34.57518 -80.32134 19014 ft 323 kts 327°
2026-05-07 01:39 34.59520 -80.33348 18603 ft 321 kts 326°
2026-05-07 01:40 34.61429 -80.34701 18189 ft 315 kts 319°
2026-05-07 01:40 34.63167 -80.36271 17737 ft 310 kts 315°
2026-05-07 01:40 34.64281 -80.37354 17433 ft 308 kts 315°
2026-05-07 01:40 34.65950 -80.39022 17015 ft 305 kts 314°
2026-05-07 01:41 34.67547 -80.40635 16631 ft 302 kts 314°
2026-05-07 01:41 34.69161 -80.42253 16274 ft 298 kts 314°
2026-05-07 01:41 34.70770 -80.43891 16191 ft 308 kts 314°
2026-05-07 01:41 34.72472 -80.45621 15847 ft 322 kts 315°
2026-05-07 01:42 34.74230 -80.47345 15328 ft 336 kts 316°
2026-05-07 01:42 34.76119 -80.49170 14806 ft 349 kts 316°
2026-05-07 01:42 34.78051 -80.51033 14297 ft 360 kts 316°
2026-05-07 01:42 34.79994 -80.52903 13795 ft 349 kts 316°
2026-05-07 01:43 34.81863 -80.54700 13338 ft 334 kts 316°
2026-05-07 01:43 34.83618 -80.56425 13126 ft 314 kts 315°
2026-05-07 01:43 34.85230 -80.58047 13195 ft 287 kts 314°
2026-05-07 01:43 34.86687 -80.59517 13192 ft 268 kts 314°
2026-05-07 01:44 34.88106 -80.60974 12994 ft 272 kts 313°
2026-05-07 01:44 34.89572 -80.62513 12638 ft 284 kts 313°
2026-05-07 01:44 34.91076 -80.64110 12402 ft 290 kts 313°
2026-05-07 01:44 34.92605 -80.65741 12194 ft 294 kts 313°
2026-05-07 01:45 34.94171 -80.67368 11988 ft 299 kts 314°
2026-05-07 01:45 34.95783 -80.68997 11788 ft 302 kts 314°
2026-05-07 01:45 34.97280 -80.70491 11595 ft 302 kts 315°
2026-05-07 01:45 34.98914 -80.72121 11388 ft 307 kts 315°
2026-05-07 01:46 35.00574 -80.73791 11195 ft 311 kts 314°
2026-05-07 01:46 35.02230 -80.75490 11095 ft 311 kts 314°
2026-05-07 01:46 35.03845 -80.77179 11070 ft 295 kts 313°
2026-05-07 01:46 35.05346 -80.78748 10908 ft 278 kts 313°
2026-05-07 01:47 35.06779 -80.80284 10534 ft 271 kts 311°
2026-05-07 01:47 35.08216 -80.81727 10169 ft 270 kts 323°
2026-05-07 01:47 35.10038 -80.82365 9846 ft 274 kts 345°
2026-05-07 01:47 35.11924 -80.82582 9476 ft 271 kts 351°
2026-05-07 01:48 35.13788 -80.82620 9253 ft 263 kts 352°
2026-05-07 01:48 35.15577 -80.82613 9128 ft 249 kts 350°
2026-05-07 01:48 35.17282 -80.82682 9090 ft 247 kts 349°
2026-05-07 01:48 35.19064 -80.82817 8832 ft 270 kts 349°
2026-05-07 01:49 35.20998 -80.82990 8549 ft 288 kts 348°
2026-05-07 01:49 35.22991 -80.83209 8136 ft 286 kts 348°
2026-05-07 01:49 35.24969 -80.83430 7745 ft 285 kts 348°
2026-05-07 01:49 35.26941 -80.83643 7341 ft 284 kts 348°
2026-05-07 01:50 35.28887 -80.83836 7081 ft 278 kts 349°
2026-05-07 01:50 35.30796 -80.84001 6689 ft 266 kts 350°
2026-05-07 01:50 35.32585 -80.84102 6277 ft 251 kts 355°
2026-05-07 01:50 35.34293 -80.83925 5842 ft 245 kts
2026-05-07 01:51 35.36017 -80.83661 5430 ft 250 kts
2026-05-07 01:51 35.37755 -80.83368 5041 ft 254 kts
2026-05-07 01:51 35.39451 -80.83503 4670 ft 236 kts 329°
2026-05-07 01:51 35.40588 -80.84716 4348 ft 208 kts 288°
2026-05-07 01:52 35.40891 -80.86382 4208 ft 200 kts 272°
2026-05-07 01:52 35.41159 -80.88060 4121 ft 201 kts 277°
2026-05-07 01:52 35.41622 -80.89678 4048 ft 205 kts 294°
2026-05-07 01:52 35.42793 -80.90729 4023 ft 222 kts 339°
2026-05-07 01:53 35.44354 -80.90582 4009 ft 232 kts 15°
2026-05-07 01:53 35.45851 -80.89823 3982 ft 243 kts 19°
2026-05-07 01:53 35.47490 -80.88912 4025 ft 263 kts 20°
2026-05-07 01:53 35.49087 -80.87977 4014 ft 240 kts 21°
2026-05-07 01:54 35.50577 -80.87077 3972 ft 246 kts 21°
2026-05-07 01:54 35.52132 -80.86135 3983 ft 247 kts 22°
2026-05-07 01:54 35.53679 -80.85417 3970 ft 227 kts 357°
2026-05-07 01:54 35.55086 -80.85836 3974 ft 195 kts 312°
2026-05-07 01:55 35.55695 -80.87152 4003 ft 188 kts 270°
2026-05-07 01:55 35.55741 -80.88771 4009 ft 195 kts 265°
2026-05-07 01:55 35.55722 -80.90452 4012 ft 199 kts 263°
2026-05-07 01:55 35.55669 -80.92159 4002 ft 201 kts 263°
2026-05-07 01:56 35.55213 -80.93731 4011 ft 201 kts 226°
2026-05-07 01:56 35.53963 -80.94602 4017 ft 203 kts 207°
2026-05-07 01:56 35.52659 -80.95180 3979 ft 192 kts 202°
2026-05-07 01:56 35.51343 -80.95419 3971 ft 194 kts 191°
2026-05-07 01:57 35.49991 -80.95506 3981 ft 197 kts 189°
2026-05-07 01:57 35.48597 -80.95558 3995 ft 203 kts 188°
2026-05-07 01:57 35.47168 -80.95579 3986 ft 207 kts 187°
2026-05-07 01:57 35.45711 -80.95547 3992 ft 211 kts 185°
2026-05-07 01:58 35.44231 -80.95468 3992 ft 214 kts 184°
2026-05-07 01:58 35.42734 -80.95365 4009 ft 217 kts 184°
2026-05-07 01:58 35.41219 -80.95240 4005 ft 219 kts 183°
2026-05-07 01:58 35.39744 -80.95107 4028 ft 200 kts 183°
2026-05-07 01:59 35.38454 -80.94988 3871 ft 172 kts 184°
2026-05-07 01:59 35.37271 -80.94892 3606 ft 169 kts 184°
2026-05-07 01:59 35.36184 -80.94801 3387 ft 160 kts 185°
2026-05-07 01:59 35.35069 -80.94708 3234 ft 166 kts 185°
2026-05-07 02:00 35.33935 -80.94612 3049 ft 159 kts 185°
2026-05-07 02:00 35.32862 -80.94523 2808 ft 151 kts 185°
2026-05-07 02:00 35.31847 -80.94428 2621 ft 142 kts 186°
2026-05-07 02:00 35.30876 -80.94346 2442 ft 142 kts 186°
2026-05-07 02:01 35.29877 -80.94268 2274 ft 146 kts 186°
2026-05-07 02:01 35.28867 -80.94176 2089 ft 144 kts 185°
2026-05-07 02:01 35.27884 -80.94107 1952 ft 135 kts 185°
2026-05-07 02:01 35.27019 -80.94026 1700 ft 116 kts 182°
2026-05-07 02:02 35.26321 -80.93964 1421 ft 119 kts 179°
2026-05-07 02:02 35.25622 -80.93898 1240 ft 120 kts 180°
2026-05-07 02:02 35.24734 -80.93813 1266 ft 136 kts 179°
2026-05-07 02:02 35.23769 -80.93728 1107 ft 134 kts 179°
2026-05-07 02:03 35.22886 -80.93660 874 ft 121 kts 176°
2026-05-07 02:03 35.22096 -80.93583 735 ft 109 kts 178°
2026-05-07 02:03 35.21450 -80.93530 733 ft 79 kts 176°
2026-05-07 02:03 35.21069 -80.93508 732 ft 32 kts 183°
2026-05-07 02:04 35.20936 -80.93569 732 ft 9 kts 268°
2026-05-07 02:04 35.20965 -80.93620 731 ft 6 kts 351°
2026-05-07 02:04 35.20977 -80.93622 731 ft 0 kts 351°
2026-05-07 02:05 35.20991 -80.93625 731 ft 6 kts 353°
2026-05-07 02:05 35.21070 -80.93631 731 ft 18 kts 356°
2026-05-07 02:05 35.21206 -80.93643 731 ft 22 kts 355°
2026-05-07 02:06 35.21367 -80.93657 731 ft 25 kts 356°
2026-05-07 02:06 35.21530 -80.93673 731 ft 20 kts 355°
2026-05-07 02:06 35.21671 -80.93681 731 ft 20 kts 359°
2026-05-07 02:06 35.21804 -80.93696 733 ft 18 kts 354°
2026-05-07 02:07 35.21935 -80.93706 731 ft 19 kts 356°
2026-05-07 02:07 35.22185 -80.93749 731 ft 15 kts 294°
2026-05-07 02:07 35.22241 -80.93822 731 ft 4 kts 329°
2026-05-07 02:08 35.22245 -80.93833 731 ft 4 kts 277°
2026-05-07 02:08 35.22246 -80.93856 747 ft 1 kts 278°
2026-05-07 02:08 35.22246 -80.93857 748 ft 0 kts 283°
2026-05-07 02:08 35.22251 -80.93868 745 ft 2 kts 308°
2026-05-07 02:09 35.22261 -80.93878 724 ft 2 kts 330°
2026-05-07 02:09 35.22264 -80.93881 726 ft 0 kts 329°